FW8143 Weather Reports


time (UTC)temp
F
wind
direction
speed
knots
gust
knots
rain 1hr
in
rain 24hr
in
rain mn
in
humidity
%
barometer
mb
20260504204644 66 286 8.7 16.5 0.00 0.00 0.00 20 1020.5
20260504203920 65 209 9.6 20.0 0.00 0.00 0.00 21 1020.6
20260504203421 65 281 10.4 20.0 0.00 0.00 0.00 20 1020.5
20260504202920 65 269 9.6 19.1 0.00 0.00 0.00 20 1020.6
20260504202420 65 229 9.6 19.1 0.00 0.00 0.00 20 1020.6
20260504201919 66 290 8.7 17.4 0.00 0.00 0.00 20 1020.6
20260504201636 65 269 9.6 20.9 0.00 0.00 0.00 21 1020.6
20260504201402 65 221 8.7 20.9 0.00 0.00 0.00 21 1020.6
20260504200639 66 225 9.6 20.0 0.00 0.00 0.00 21 1020.8
20260504195914 65 225 10.4 21.7 0.00 0.00 0.00 22 1020.8
20260504195415 65 226 10.4 21.7 0.00 0.00 0.00 21 1020.6
20260504194914 65 240 10.4 21.7 0.00 0.00 0.00 21 1020.9
20260504194413 66 236 9.6 21.7 0.00 0.00 0.00 22 1021.0
20260504193914 65 225 9.6 17.4 0.00 0.00 0.00 22 1021.0
20260504193415 65 247 9.6 20.0 0.00 0.00 0.00 22 1021.1
20260504193143 66 260 8.7 20.0 0.00 0.00 0.00 22 1021.1
20260504192414 66 281 8.7 20.9 0.00 0.00 0.00 22 1021.0
20260504192357 66 231 7.8 20.9 0.00 0.00 0.00 22 1021.1
20260504191413 65 238 8.7 18.2 0.00 0.00 0.00 23 1020.9
20260504190914 65 270 9.6 20.9 0.00 0.00 0.00 23 1021.3
20260504190413 65 259 8.7 20.9 0.00 0.00 0.00 24 1021.0
20260504185914 65 227 8.7 15.6 0.00 0.00 0.00 24 1021.3
20260504185414 64 272 7.8 17.4 0.00 0.00 0.00 24 1021.3
20260504184914 64 258 8.7 18.2 0.00 0.00 0.00 26 1021.1
20260504184637 64 235 9.6 18.2 0.00 0.00 0.00 25 1021.4
20260504183913 64 246 9.6 16.5 0.00 0.00 0.00 25 1021.4
20260504183414 64 255 9.6 18.2 0.00 0.00 0.00 24 1021.4
20260504182913 64 196 8.7 18.2 0.00 0.00 0.00 25 1021.4
20260504182413 64 219 8.7 19.1 0.00 0.00 0.00 25 1021.5
20260504181914 64 262 9.6 20.0 0.00 0.00 0.00 25 1021.6
20260504181414 64 198 7.8 20.0 0.00 0.00 0.00 25 1021.6
20260504180914 64 229 6.1 15.6 0.00 0.00 0.00 27 1021.5
20260504180412 63 254 7.8 17.4 0.00 0.00 0.00 29 1021.8
20260504175913 63 288 7.0 17.4 0.00 0.00 0.00 29 1022.0
20260504175404 63 233 6.1 13.0 0.00 0.00 0.00 29 1022.0
20260504174904 62 227 7.8 18.2 0.00 0.00 0.00 29 1022.1
20260504174351 62 245 7.8 21.7 0.00 0.00 0.00 30 1022.1
20260504173852 62 295 6.1 21.7 0.00 0.00 0.00 33 1022.1
20260504173613 62 231 3.5 12.2 0.00 0.00 0.00 36 1022.3
20260504172852 61 250 3.5 10.4 0.00 0.00 0.00 37 1022.1
20260504172349 61 266 4.3 10.4 0.00 0.00 0.00 38 1022.1
20260504171850 61 242 5.2 13.0 0.00 0.00 0.00 38 1022.3
20260504171350 61 113 5.2 13.0 0.00 0.00 0.00 38 1022.3
20260504170850 61 308 6.1 15.6 0.00 0.00 0.00 38 1022.3
20260504170349 60 247 6.1 15.6 0.00 0.00 0.00 38 1022.3
20260504160317 56 277 3.5 12.2 0.00 0.00 0.00 51 1022.8
20260504150710 52 232 1.7 4.3 0.00 0.00 0.00 65 1023.4
20260504150203 52 240 0.9 4.3 0.00 0.00 0.00 66 1023.4
20260504141102 49 238 1.7 5.2 0.00 0.00 0.00 71 1023.3
20260504140556 49 244 0.9 5.2 0.00 0.00 0.00 71 1023.4
20260504130515 47 178 0.0 3.5 0.00 0.00 0.00 72 1022.9
20260504110433 48 101 2.6 5.2 0.00 0.00 0.00 67 1022.0
20260504081917 50 121 1.7 5.2 0.00 0.00 0.00 63 1022.8
20260504081416 51 93 0.9 3.5 0.00 0.00 0.00 63 1022.8
20260504080916 51 211 0.0 2.6 0.00 0.00 0.00 63 1023.2
20260504080644 50 71 0.0 0.0 0.00 0.00 0.00 59 1023.2
20260504070334 49 105 0.9 3.5 0.00 0.00 0.00 60 1023.7
20260504070318 49 85 2.6 6.1 0.00 0.00 0.00 60 1023.7
20260504060230 49 77 0.9 3.5 0.00 0.00 0.00 57 1023.4
20260504050227 51 91 0.9 2.6 0.00 0.00 0.00 52 1023.8
20260504045727 51 90 0.9 2.6 0.00 0.00 0.00 51 1023.8
20260504045227 51 90 1.7 3.5 0.00 0.00 0.00 51 1023.7
20260504044726 51 155 1.7 4.3 0.00 0.00 0.00 50 1023.7
20260504044227 52 166 0.9 4.3 0.00 0.00 0.00 49 1023.5
20260504043726 52 96 1.7 4.3 0.00 0.00 0.00 49 1023.5
20260504043227 52 89 1.7 4.3 0.00 0.00 0.00 49 1023.4
20260504042726 52 161 2.6 4.3 0.00 0.00 0.00 48 1023.4
20260504042226 52 105 2.6 7.0 0.00 0.00 0.00 48 1023.4
20260504041726 52 115 1.7 7.0 0.00 0.00 0.00 47 1023.4
20260504041710 52 135 1.7 4.3 0.00 0.00 0.00 45 1023.5
20260504040946 53 212 2.6 6.1 0.00 0.00 0.00 44 1023.5
20260504040449 53 167 1.7 6.1 0.00 0.00 0.00 43 1023.4
20260504035727 53 176 1.7 2.6 0.00 0.00 0.00 42 1023.4
20260504035227 53 146 1.7 5.2 0.00 0.00 0.00 41 1023.4
20260504034727 53 148 2.6 8.7 0.00 0.00 0.00 39 1023.4
20260504034224 53 220 4.3 9.6 0.00 0.00 0.00 39 1023.5
20260504033717 53 171 4.3 9.6 0.00 0.00 0.00 38 1023.5
20260504033212 53 200 2.6 7.0 0.00 0.00 0.00 36 1023.4
20260504032705 54 196 2.6 7.0 0.00 0.00 0.00 34 1023.3
20260504032200 54 163 2.6 5.2 0.00 0.00 0.00 34 1023.2
20260504031654 55 150 1.7 4.3 0.00 0.00 0.00 33 1023.2
20260504031154 55 157 1.7 4.3 0.00 0.00 0.00 33 1023.0
20260504030655 55 153 1.7 4.3 0.00 0.00 0.00 32 1023.0
20260504030418 56 164 1.7 3.5 0.00 0.00 0.00 31 1022.9
20260504025654 56 171 1.7 3.5 0.00 0.00 0.00 31 1022.9
20260504025155 56 158 1.7 5.2 0.00 0.00 0.00 31 1022.8
20260504025133 56 166 2.6 5.2 0.00 0.00 0.00 31 1022.8
20260504024155 57 201 3.5 5.2 0.00 0.00 0.00 30 1022.6
20260504023928 57 192 3.5 5.2 0.00 0.00 0.00 30 1022.9
20260504023154 58 184 2.6 5.2 0.00 0.00 0.00 29 1022.6
20260504022654 58 223 3.5 7.0 0.00 0.00 0.00 29 1022.5
20260504022412 58 203 4.3 7.0 0.00 0.00 0.00 29 1022.5
20260504021655 58 181 3.5 7.0 0.00 0.00 0.00 29 1022.5
20260504021412 59 205 3.5 7.0 0.00 0.00 0.00 28 1022.5
20260504020914 59 211 3.5 7.8 0.00 0.00 0.00 28 1022.5
20260504020156 60 236 4.3 7.8 0.00 0.00 0.00 28 1022.4
20260504015655 60 233 3.5 7.8 0.00 0.00 0.00 27 1022.3
20260504015149 61 190 3.5 8.7 0.00 0.00 0.00 27 1022.3
20260504014643 61 221 6.1 13.0 0.00 0.00 0.00 26 1022.3
20260504014355 62 244 5.2 13.0 0.00 0.00 0.00 26 1022.3
20260504013854 62 192 4.3 10.4 0.00 0.00 0.00 26 1022.3
20260504013125 63 248 4.3 9.6 0.00 0.00 0.00 25 1022.3
20260504012619 63 245 4.3 8.7 0.00 0.00 0.00 25 1022.3
20260504012112 63 235 4.3 8.7 0.00 0.00 0.00 25 1022.3
20260504011607 63 235 6.1 11.3 0.00 0.00 0.00 24 1022.3
20260504011101 64 225 5.2 12.2 0.00 0.00 0.00 24 1022.4
20260504010556 64 240 5.2 13.0 0.00 0.00 0.00 24 1022.4
20260504010049 64 211 4.3 13.0 0.00 0.00 0.00 24 1022.4
20260504005543 65 217 4.3 9.6 0.00 0.00 0.00 24 1022.4
20260504005038 65 262 5.2 9.6 0.00 0.00 0.00 24 1022.5
20260504005019 65 233 6.1 13.0 0.00 0.00 0.00 24 1022.4
20260504004025 65 238 7.0 13.0 0.00 0.00 0.00 24 1022.5
20260504003519 65 234 7.0 13.9 0.00 0.00 0.00 23 1022.4
20260504003013 65 232 6.1 13.9 0.00 0.00 0.00 23 1022.5
20260504002508 66 221 5.2 13.0 0.00 0.00 0.00 23 1022.5
20260504002001 66 280 6.1 13.0 0.00 0.00 0.00 22 1022.6
20260504001455 66 240 7.0 13.0 0.00 0.00 0.00 22 1022.5
20260504000949 66 238 6.1 12.2 0.00 0.00 0.00 23 1022.5
20260504000444 67 242 7.8 15.6 0.00 0.00 0.00 22 1022.6
20260503235937 67 275 7.0 15.6 0.00 0.00 0.00 22 1022.6
20260503235910 67 271 3.5 11.3 0.00 0.00 0.00 22 1022.6
20260503234925 67 309 4.3 13.0 0.00 0.00 0.00 21 1022.6
20260503234419 67 300 6.1 13.0 0.00 0.00 0.00 21 1022.8
20260503234410 67 224 4.3 12.2 0.00 0.00 0.00 22 1022.8
20260503233628 67 239 5.2 17.4 0.00 0.00 0.00 22 1022.8
20260503232902 67 182 6.1 17.4 0.00 0.00 0.00 22 1022.9
20260503232355 68 277 6.1 15.6 0.00 0.00 0.00 23 1022.8
20260503231849 68 274 7.8 15.6 0.00 0.00 0.00 22 1022.9
20260503231343 68 250 7.0 15.6 0.00 0.00 0.00 22 1022.9
20260503230838 68 183 5.2 11.3 0.00 0.00 0.00 22 1023.0
20260503230331 68 222 6.1 13.0 0.00 0.00 0.00 22 1023.0
20260503225825 68 321 7.8 15.6 0.00 0.00 0.00 22 1023.0
20260503225537 69 281 7.0 15.6 0.00 0.00 0.00 21 1023.2
20260503224813 69 263 6.1 14.8 0.00 0.00 0.00 21 1023.2
20260503224307 69 213 7.0 14.8 0.00 0.00 0.00 21 1023.3
20260503223802 69 190 5.2 12.2 0.00 0.00 0.00 21 1023.5
20260503223255 69 211 6.1 15.6 0.00 0.00 0.00 21 1023.4
20260503222749 69 193 6.1 15.6 0.00 0.00 0.00 20 1023.4
20260503222243 69 250 7.0 14.8 0.00 0.00 0.00 20 1023.5
20260503221737 70 38 6.1 14.8 0.00 0.00 0.00 20 1023.5
20260503221231 70 260 6.1 15.6 0.00 0.00 0.00 20 1023.5
20260503220725 69 198 5.2 15.6 0.00 0.00 0.00 20 1023.7
20260503220219 69 242 5.2 11.3 0.00 0.00 0.00 21 1023.7
20260503215713 69 223 5.2 13.9 0.00 0.00 0.00 21 1023.8
20260503215208 69 240 5.2 13.0 0.00 0.00 0.00 20 1023.8
20260503214701 69 267 7.0 14.8 0.00 0.00 0.00 20 1023.9
20260503214155 69 232 7.0 14.8 0.00 0.00 0.00 20 1024.0
20260503213649 68 217 7.0 14.8 0.00 0.00 0.00 21 1024.0
20260503213150 67 254 7.8 17.4 0.00 0.00 0.00 21 1024.3
20260503212650 67 268 7.0 17.4 0.00 0.00 0.00 22 1024.3
20260503212148 67 196 7.0 15.6 0.00 0.00 0.00 22 1024.4
20260503211906 68 271 7.0 15.6 0.00 0.00 0.00 21 1024.4
20260503211149 69 250 4.3 11.3 0.00 0.00 0.00 21 1024.4
20260503210647 69 271 6.1 11.3 0.00 0.00 0.00 22 1024.7
20260503210147 69 243 7.0 12.2 0.00 0.00 0.00 22 1024.8
20260503205648 69 322 7.0 14.8 0.00 0.00 0.00 21 1024.8
20260503205146 69 229 7.0 14.8 0.00 0.00 0.00 21 1024.8
20260503204908 69 248 7.0 15.6 0.00 0.00 0.00 21 1024.9